| time (UTC) | temp F | wind direction | speed knots | gust knots | rain 1hr in | rain 24hr in | rain mn in | humidity % | barometer mb |
| 20260508040019 | 65 | 135 | 0.9 | 3.5 | 0.00 | 0.00 | 0.00 | 67 | 1010.6 |
| 20260508035015 | 65 | 90 | 0.9 | 2.6 | 0.00 | 0.00 | 0.00 | 69 | 1010.5 |
| 20260508034016 | 66 | 90 | 1.7 | 3.5 | 0.00 | 0.00 | 0.00 | 66 | 1010.5 |
| 20260508033015 | 66 | 90 | 3.5 | 5.2 | 0.00 | 0.00 | 0.00 | 65 | 1010.4 |
| 20260508032018 | 64 | 113 | 3.5 | 5.2 | 0.00 | 0.00 | 0.00 | 70 | 1010.4 |
| 20260508031017 | 64 | 113 | 3.5 | 5.2 | 0.00 | 0.00 | 0.00 | 73 | 1010.4 |
| 20260508030018 | 63 | 113 | 2.6 | 4.3 | 0.00 | 0.00 | 0.00 | 77 | 1010.5 |
| 20260508025444 | 63 | 23 | 0.9 | 1.7 | 0.00 | 0.00 | 0.00 | 77 | 1010.5 |
| 20260508024230 | 63 | 23 | 1.7 | 3.5 | 0.00 | 0.00 | 0.00 | 77 | 1010.5 |
| 20260508023232 | 63 | 0.0 | 0.0 | 0.00 | 0.00 | 0.00 | 77 | 1010.6 | |
| 20260508022020 | 63 | 225 | 0.9 | 3.5 | 0.00 | 0.00 | 0.00 | 78 | 1010.7 |
| 20260508021017 | 64 | 270 | 2.6 | 3.5 | 0.00 | 0.00 | 0.00 | 77 | 1010.7 |
| 20260508020018 | 64 | 90 | 2.6 | 4.3 | 0.00 | 0.00 | 0.00 | 76 | 1010.8 |
| 20260508015018 | 65 | 270 | 1.7 | 3.5 | 0.00 | 0.00 | 0.00 | 75 | 1010.7 |
| 20260508014017 | 66 | 293 | 1.7 | 2.6 | 0.00 | 0.00 | 0.00 | 68 | 1010.7 |
| 20260508013018 | 66 | 315 | 0.9 | 2.6 | 0.00 | 0.00 | 0.00 | 69 | 1010.7 |
| 20260508012018 | 65 | 270 | 2.6 | 2.6 | 0.00 | 0.00 | 0.00 | 74 | 1010.7 |
| 20260508011018 | 65 | 0 | 1.7 | 4.3 | 0.00 | 0.01 | 0.00 | 71 | 1010.7 |
| 20260508010017 | 64 | 45 | 2.6 | 5.2 | 0.00 | 0.01 | 0.00 | 75 | 1010.9 |
| 20260508005018 | 63 | 0.0 | 0.9 | 0.00 | 0.01 | 0.00 | 79 | 1011.0 | |
| 20260508004017 | 63 | 315 | 0.9 | 1.7 | 0.00 | 0.01 | 0.00 | 80 | 1011.1 |
| 20260508003018 | 63 | 315 | 0.9 | 3.5 | 0.00 | 0.01 | 0.00 | 82 | 1011.1 |
| 20260508002017 | 63 | 158 | 2.6 | 5.2 | 0.00 | 0.02 | 0.00 | 81 | 1011.3 |
| 20260508001017 | 63 | 293 | 2.6 | 3.5 | 0.00 | 0.06 | 0.00 | 81 | 1011.3 |
| 20260508000017 | 63 | 293 | 1.7 | 2.6 | 0.00 | 0.06 | 0.00 | 83 | 1011.5 |
| 20260507235017 | 62 | 293 | 1.7 | 2.6 | 0.00 | 0.06 | 0.00 | 85 | 1011.6 |
| 20260507234017 | 62 | 293 | 3.5 | 4.3 | 0.00 | 0.06 | 0.00 | 85 | 1011.8 |
| 20260507233022 | 63 | 293 | 2.6 | 4.3 | 0.00 | 0.06 | 0.00 | 84 | 1011.8 |
| 20260507232018 | 63 | 315 | 3.5 | 4.3 | 0.00 | 0.06 | 0.00 | 84 | 1011.9 |
| 20260507231018 | 63 | 315 | 4.3 | 7.8 | 0.00 | 0.06 | 0.00 | 84 | 1012.1 |
| 20260507230017 | 63 | 315 | 7.8 | 10.4 | 0.00 | 0.06 | 0.00 | 83 | 1012.2 |
| 20260507225017 | 63 | 315 | 7.0 | 9.6 | 0.00 | 0.06 | 0.00 | 83 | 1012.5 |
| 20260507224022 | 64 | 315 | 5.2 | 8.7 | 0.00 | 0.06 | 0.00 | 82 | 1012.8 |
| 20260507223017 | 64 | 315 | 5.2 | 8.7 | 0.00 | 0.10 | 0.00 | 82 | 1013.0 |
| 20260507222017 | 64 | 315 | 3.5 | 7.8 | 0.00 | 0.26 | 0.00 | 82 | 1013.1 |
| 20260507221444 | 64 | 315 | 3.5 | 6.1 | 0.00 | 0.40 | 0.00 | 82 | 1013.1 |
| 20260507220017 | 64 | 315 | 3.5 | 7.0 | 0.00 | 0.52 | 0.52 | 82 | 1013.2 |
| 20260507215016 | 64 | 315 | 3.5 | 7.0 | 0.00 | 0.57 | 0.52 | 82 | 1013.3 |
| 20260507214016 | 64 | 315 | 3.5 | 5.2 | 0.00 | 0.58 | 0.52 | 82 | 1013.3 |
| 20260507213017 | 63 | 315 | 6.1 | 8.7 | 0.00 | 0.58 | 0.52 | 82 | 1013.3 |
| 20260507212017 | 63 | 315 | 5.2 | 7.8 | 0.00 | 0.59 | 0.52 | 83 | 1013.5 |
| 20260507211016 | 63 | 315 | 4.3 | 7.0 | 0.00 | 0.59 | 0.52 | 83 | 1013.5 |
| 20260507210016 | 63 | 315 | 5.2 | 7.0 | 0.00 | 0.59 | 0.52 | 83 | 1013.4 |
| 20260507205016 | 63 | 315 | 3.5 | 7.0 | 0.00 | 0.59 | 0.52 | 83 | 1013.6 |
| 20260507204018 | 64 | 315 | 6.1 | 7.8 | 0.00 | 0.59 | 0.52 | 84 | 1013.5 |
| 20260507203016 | 64 | 315 | 6.1 | 8.7 | 0.00 | 0.60 | 0.52 | 84 | 1013.5 |
| 20260507202016 | 64 | 315 | 5.2 | 7.8 | 0.00 | 0.61 | 0.52 | 83 | 1013.5 |
| 20260507201016 | 63 | 315 | 5.2 | 7.0 | 0.00 | 0.61 | 0.52 | 82 | 1013.6 |
| 20260507200016 | 63 | 338 | 3.5 | 7.0 | 0.00 | 0.62 | 0.52 | 84 | 1013.4 |
| 20260507195229 | 63 | 338 | 5.2 | 7.8 | 0.00 | 0.62 | 0.52 | 84 | 1013.4 |
| 20260507194016 | 63 | 338 | 5.2 | 7.8 | 0.00 | 0.62 | 0.52 | 84 | 1013.4 |
| 20260507193016 | 63 | 338 | 4.3 | 7.0 | 0.00 | 0.62 | 0.52 | 86 | 1013.5 |
| 20260507192016 | 63 | 338 | 3.5 | 5.2 | 0.00 | 0.62 | 0.52 | 86 | 1013.5 |
| 20260507191016 | 64 | 315 | 3.5 | 5.2 | 0.00 | 0.62 | 0.52 | 86 | 1013.5 |
| 20260507190016 | 64 | 338 | 3.5 | 7.0 | 0.00 | 0.62 | 0.52 | 86 | 1013.4 |
| 20260507185443 | 64 | 315 | 5.2 | 8.7 | 0.00 | 0.62 | 0.52 | 85 | 1013.5 |
| 20260507184232 | 64 | 315 | 5.2 | 8.7 | 0.00 | 0.62 | 0.52 | 85 | 1013.5 |
| 20260507183016 | 65 | 315 | 4.3 | 7.8 | 0.00 | 0.63 | 0.52 | 85 | 1013.6 |
| 20260507182016 | 65 | 315 | 5.2 | 8.7 | 0.00 | 0.63 | 0.52 | 85 | 1013.6 |
| 20260507181016 | 65 | 315 | 5.2 | 9.6 | 0.00 | 0.64 | 0.52 | 84 | 1013.7 |
| 20260507180017 | 65 | 315 | 6.1 | 8.7 | 0.00 | 0.65 | 0.52 | 84 | 1013.6 |
| 20260507175230 | 65 | 315 | 7.8 | 10.4 | 0.00 | 0.65 | 0.52 | 83 | 1013.7 |
| 20260507174226 | 65 | 315 | 7.0 | 10.4 | 0.00 | 0.65 | 0.52 | 84 | 1013.7 |
| 20260507173017 | 66 | 293 | 5.2 | 8.7 | 0.00 | 0.65 | 0.52 | 85 | 1013.7 |
| 20260507172016 | 66 | 293 | 5.2 | 9.6 | 0.00 | 0.65 | 0.52 | 85 | 1013.5 |
| 20260507171016 | 65 | 293 | 7.8 | 11.3 | 0.00 | 0.65 | 0.52 | 86 | 1013.6 |
| 20260507170017 | 65 | 293 | 8.7 | 11.3 | 0.00 | 0.65 | 0.52 | 86 | 1013.5 |
| 20260507165018 | 65 | 293 | 10.4 | 13.0 | 0.00 | 0.65 | 0.52 | 85 | 1013.6 |
| 20260507164018 | 66 | 293 | 9.6 | 12.2 | 0.00 | 0.65 | 0.52 | 85 | 1013.5 |
| 20260507163019 | 66 | 293 | 9.6 | 13.0 | 0.00 | 0.65 | 0.52 | 85 | 1013.5 |
| 20260507162017 | 66 | 293 | 9.6 | 13.0 | 0.00 | 0.65 | 0.52 | 85 | 1013.6 |
| 20260507161017 | 66 | 293 | 8.7 | 12.2 | 0.00 | 0.65 | 0.52 | 85 | 1013.6 |
| 20260507160231 | 66 | 293 | 8.7 | 11.3 | 0.00 | 0.65 | 0.52 | 85 | 1013.5 |
| 20260507155017 | 66 | 293 | 9.6 | 12.2 | 0.00 | 0.65 | 0.52 | 83 | 1013.4 |
| 20260507154018 | 66 | 293 | 9.6 | 13.9 | 0.00 | 0.65 | 0.52 | 83 | 1013.3 |
| 20260507153017 | 66 | 293 | 9.6 | 13.9 | 0.00 | 0.65 | 0.52 | 84 | 1013.3 |
| 20260507152017 | 66 | 293 | 9.6 | 13.9 | 0.00 | 0.65 | 0.52 | 83 | 1013.5 |
| 20260507151017 | 66 | 293 | 10.4 | 14.8 | 0.00 | 0.65 | 0.52 | 85 | 1013.6 |
| 20260507150017 | 66 | 270 | 9.6 | 13.9 | 0.00 | 0.65 | 0.52 | 84 | 1013.7 |
| 20260507145017 | 66 | 293 | 10.4 | 13.9 | 0.00 | 0.65 | 0.52 | 84 | 1013.6 |
| 20260507144017 | 65 | 293 | 12.2 | 14.8 | 0.00 | 0.65 | 0.52 | 84 | 1013.9 |
| 20260507143017 | 66 | 293 | 10.4 | 13.9 | 0.00 | 0.65 | 0.52 | 83 | 1013.9 |
| 20260507142017 | 66 | 293 | 10.4 | 13.0 | 0.00 | 0.65 | 0.52 | 83 | 1013.9 |
| 20260507141019 | 66 | 293 | 8.7 | 12.2 | 0.00 | 0.65 | 0.52 | 81 | 1014.0 |
| 20260507140017 | 66 | 293 | 10.4 | 13.0 | 0.00 | 0.65 | 0.52 | 82 | 1014.2 |
| 20260507135017 | 67 | 293 | 7.8 | 12.2 | 0.00 | 0.65 | 0.52 | 81 | 1014.3 |
| 20260507134229 | 66 | 270 | 8.7 | 11.3 | 0.00 | 0.65 | 0.52 | 80 | 1014.5 |
| 20260507133229 | 66 | 293 | 8.7 | 11.3 | 0.00 | 0.65 | 0.52 | 80 | 1014.8 |
| 20260507132022 | 66 | 293 | 7.8 | 10.4 | 0.00 | 0.65 | 0.52 | 82 | 1014.9 |
| 20260507131441 | 66 | 293 | 6.1 | 9.6 | 0.00 | 0.65 | 0.52 | 80 | 1015.0 |
| 20260507130018 | 66 | 293 | 7.8 | 9.6 | 0.00 | 0.65 | 0.52 | 82 | 1015.2 |
| 20260507125017 | 65 | 293 | 7.8 | 10.4 | 0.00 | 0.65 | 0.52 | 84 | 1015.1 |
| 20260507124017 | 65 | 270 | 7.8 | 9.6 | 0.00 | 0.65 | 0.52 | 83 | 1015.2 |
| 20260507123018 | 65 | 270 | 7.0 | 9.6 | 0.00 | 0.65 | 0.52 | 84 | 1015.3 |
| 20260507122017 | 65 | 270 | 7.0 | 9.6 | 0.00 | 0.65 | 0.52 | 84 | 1015.4 |
| 20260507121018 | 65 | 270 | 5.2 | 8.7 | 0.00 | 0.65 | 0.52 | 83 | 1015.3 |
| 20260507120017 | 65 | 248 | 5.2 | 7.8 | 0.00 | 0.65 | 0.52 | 85 | 1015.3 |
| 20260507115017 | 65 | 248 | 6.1 | 8.7 | 0.00 | 0.65 | 0.52 | 86 | 1015.4 |
| 20260507114017 | 65 | 248 | 4.3 | 7.8 | 0.00 | 0.65 | 0.52 | 86 | 1015.4 |
| 20260507113016 | 65 | 248 | 4.3 | 7.0 | 0.00 | 0.65 | 0.52 | 85 | 1015.5 |
| 20260507112016 | 65 | 203 | 4.3 | 6.1 | 0.00 | 0.65 | 0.52 | 86 | 1015.5 |
| 20260507111016 | 65 | 225 | 5.2 | 7.8 | 0.00 | 0.65 | 0.52 | 86 | 1015.6 |
| 20260507110018 | 65 | 203 | 6.1 | 9.6 | 0.00 | 0.65 | 0.52 | 85 | 1015.7 |
| 20260507105017 | 65 | 180 | 7.0 | 9.6 | 0.00 | 0.65 | 0.52 | 85 | 1015.7 |
| 20260507104017 | 65 | 180 | 7.8 | 11.3 | 0.00 | 0.65 | 0.52 | 84 | 1015.6 |
| 20260507103226 | 66 | 180 | 7.0 | 9.6 | 0.00 | 0.65 | 0.52 | 83 | 1015.6 |
| 20260507102017 | 65 | 180 | 7.0 | 11.3 | 0.00 | 0.65 | 0.52 | 84 | 1015.5 |
| 20260507101228 | 66 | 180 | 7.8 | 12.2 | 0.00 | 0.65 | 0.52 | 82 | 1015.6 |
| 20260507100017 | 66 | 180 | 8.7 | 13.0 | 0.00 | 0.65 | 0.52 | 82 | 1015.5 |
| 20260507095017 | 65 | 180 | 7.8 | 12.2 | 0.00 | 0.65 | 0.52 | 83 | 1015.5 |
| 20260507094016 | 65 | 180 | 8.7 | 13.0 | 0.00 | 0.65 | 0.52 | 82 | 1015.5 |
| 20260507093017 | 67 | 203 | 6.1 | 10.4 | 0.00 | 0.65 | 0.52 | 81 | 1015.6 |
| 20260507092228 | 67 | 203 | 6.1 | 8.7 | 0.00 | 0.65 | 0.52 | 81 | 1015.7 |
| 20260507091018 | 66 | 203 | 7.0 | 9.6 | 0.00 | 0.65 | 0.52 | 80 | 1015.5 |
| 20260507090016 | 67 | 158 | 4.3 | 7.8 | 0.00 | 0.65 | 0.52 | 79 | 1015.7 |
| 20260507085016 | 67 | 180 | 3.5 | 6.1 | 0.00 | 0.65 | 0.52 | 80 | 1015.8 |
| 20260507084016 | 67 | 135 | 5.2 | 8.7 | 0.00 | 0.65 | 0.52 | 80 | 1015.7 |
| 20260507083016 | 66 | 113 | 2.6 | 7.0 | 0.00 | 0.65 | 0.52 | 81 | 1015.8 |
| 20260507082018 | 65 | 158 | 6.1 | 11.3 | 0.00 | 0.65 | 0.52 | 81 | 1015.7 |
| 20260507081016 | 65 | 135 | 7.0 | 10.4 | 0.00 | 0.65 | 0.52 | 81 | 1015.8 |
| 20260507080017 | 65 | 158 | 5.2 | 11.3 | 0.00 | 0.65 | 0.52 | 81 | 1015.9 |
| 20260507075017 | 65 | 135 | 5.2 | 8.7 | 0.00 | 0.65 | 0.52 | 82 | 1015.9 |
| 20260507074017 | 65 | 90 | 7.0 | 9.6 | 0.00 | 0.65 | 0.52 | 81 | 1015.9 |
| 20260507073017 | 64 | 113 | 6.1 | 9.6 | 0.00 | 0.65 | 0.52 | 81 | 1015.9 |
| 20260507072016 | 64 | 113 | 7.8 | 12.2 | 0.00 | 0.65 | 0.52 | 81 | 1015.9 |
| 20260507071016 | 63 | 90 | 7.8 | 11.3 | 0.00 | 0.65 | 0.52 | 82 | 1016.1 |
| 20260507070016 | 64 | 90 | 7.0 | 11.3 | 0.00 | 0.65 | 0.52 | 83 | 1015.9 |
| 20260507065233 | 63 | 113 | 7.8 | 11.3 | 0.00 | 0.65 | 0.52 | 84 | 1016.0 |
| 20260507064228 | 63 | 135 | 5.2 | 10.4 | 0.00 | 0.65 | 0.52 | 86 | 1015.8 |
| 20260507063016 | 62 | 90 | 7.0 | 10.4 | 0.00 | 0.65 | 0.52 | 86 | 1015.6 |
| 20260507062016 | 61 | 90 | 9.6 | 11.3 | 0.00 | 0.65 | 0.52 | 87 | 1015.6 |
| 20260507061016 | 61 | 90 | 7.8 | 12.2 | 0.00 | 0.65 | 0.52 | 89 | 1015.3 |
| 20260507060017 | 61 | 90 | 8.7 | 11.3 | 0.00 | 0.65 | 0.52 | 90 | 1015.3 |
| 20260507055017 | 61 | 90 | 7.8 | 9.6 | 0.00 | 0.65 | 0.52 | 91 | 1015.2 |
| 20260507054016 | 60 | 90 | 7.8 | 11.3 | 0.00 | 0.65 | 0.52 | 92 | 1015.1 |
| 20260507053229 | 60 | 68 | 7.8 | 11.3 | 0.00 | 0.65 | 0.52 | 92 | 1015.2 |
| 20260507052016 | 60 | 90 | 7.0 | 9.6 | 0.00 | 0.65 | 0.52 | 93 | 1015.2 |
| 20260507051019 | 59 | 90 | 7.0 | 9.6 | 0.00 | 0.65 | 0.52 | 93 | 1015.2 |
| 20260507050018 | 59 | 90 | 7.8 | 11.3 | 0.00 | 0.65 | 0.52 | 93 | 1015.2 |
| 20260507045017 | 59 | 90 | 7.8 | 10.4 | 0.00 | 0.65 | 0.52 | 93 | 1015.1 |
| 20260507044442 | 59 | 90 | 7.8 | 11.3 | 0.00 | 0.65 | 0.52 | 94 | 1015.1 |
| 20260507043018 | 59 | 90 | 7.0 | 10.4 | 0.00 | 0.65 | 0.52 | 94 | 1014.9 |
| 20260507042017 | 59 | 68 | 7.8 | 10.4 | 0.00 | 0.65 | 0.52 | 94 | 1014.8 |
| 20260507041018 | 59 | 68 | 8.7 | 12.2 | 0.00 | 0.66 | 0.52 | 94 | 1014.8 |